Location: Grust
(42.8833°N, 0.0333°W)
Time: 19:42:52
(UTC+00:00)

BREEZE-M TANK - Pass Details

Date: 25 October 2020
Orbit: 546 x 24740 km, 45.2° (Epoch: 21 November)

Event Time Altitude Azimuth Distance (km) Brightness Sun altitude
Rises 18:56:41 0° 282° (WNW) 5,683 8.9 -21.7°
Reaches altitude 10° 19:01:38 10° 284° (WNW) 3,308 7.4 -22.6°
Maximum altitude 19:07:40 78° 11° (N) 662 2.5 -23.7°
Enters shadow 19:07:48 76° 41° (NE) 658 2.5 -23.7°
